This demonstration page uses our WeatherBlox Daily Observations layout. Learn more.

Hourly Observations for March 27, 2019

Temp ( °F °C ) Dew Point ( °F °C ) Humidity (%) Winds ( mph kmh ) Pressure ( in mb ) Visibility ( mi km ) Precip ( " mm )
12:15 am 00:15 Clear 51 10.3 44 6.9 80 80 S 16 26 30.07 1018 10 16.0934 0 0
12:35 am 00:35 Clear 50 10.1 44 6.7 80 80 S 17 28 30.06 1018 10 16.0934 0 0
12:55 am 00:55 Clear 50 10.1 44 6.6 79 79 S 17 28 30.05 1018 10 16.0934 0 0
1:15 am 01:15 Clear 49 9.7 44 6.5 81 81 S 17 28 30.06 1018 10 16.0934 0 0
1:35 am 01:35 Clear 48 9.1 44 6.4 83 83 S 14 22 30.05 1018 10 16.0934 0 0
1:55 am 01:55 Clear 48 8.7 43 6.2 84 84 S 13 20 30.03 1017 10 16.0934 0 0
2:15 am 02:15 Clear 47 8.6 43 6.2 85 85 S 14 22 30.04 1017 10 16.0934 0 0
2:35 am 02:35 Clear 47 8.6 43 6.2 85 85 S 13 20 30.03 1017 10 16.0934 0 0
2:55 am 02:55 Clear 47 8.6 43 6.3 86 86 S 13 20 30.02 1016 10 16.0934 0 0
3:15 am 03:15 Clear 47 8.6 43 6.2 85 85 SSE 14 22 30.01 1016 10 16.0934 0 0
3:35 am 03:35 Clear 47 8.6 43 6.2 85 85 SSE 13 20 30 1016 10 16.0934 0 0
3:55 am 03:55 Clear 47 8.5 43 6.2 86 86 S 12 19 30 1016 10 16.0934 0 0
4:15 am 04:15 Clear 47 8.2 43 6.1 87 87 S 13 20 29.99 1016 10 16.0934 0 0
4:35 am 04:35 Clear 47 8.1 43 6.1 87 87 S 13 20 29.98 1015 10 16.0934 0 0
4:55 am 04:55 Clear 46 7.8 43 6.1 89 89 S 9 15 29.97 1015 10 16.0934 0 0
5:15 am 05:15 Clear 46 8 43 6.2 89 89 S 10 17 29.96 1015 10 16.0934 0 0
5:35 am 05:35 Clear 46 8 43 6.3 89 89 S 13 20 29.96 1015 10 16.0934 0 0
5:55 am 05:55 Clear 46 8 43 6.3 89 89 S 14 22 29.95 1014 10 16.0934 0 0
6:15 am 06:15 Clear 46 8 43 6.3 89 89 S 14 22 29.95 1014 10 16.0934 0 0
6:35 am 06:35 Clear 46 8 43 6.3 89 89 S 12 19 29.95 1014 10 16.0934 0 0
6:55 am 06:55 Clear 46 7.8 44 6.4 91 91 S 9 15 29.95 1014 10 16.0934 0 0
7:15 am 07:15 Clear 45 7.3 43 6.2 93 93 SSE 9 15 29.96 1014 10 16.0934 0 0
7:35 am 07:35 Sunny 45 7.1 43 6.2 94 94 S 9 15 29.96 1015 10 16.0934 0 0
7:55 am 07:55 Sunny 45 7.4 44 6.5 94 94 S 12 19 29.96 1014 10 16.0934 0 0
8:15 am 08:15 Sunny 46 8 45 7 93 93 S 10 17 29.95 1014 10 16.0934 0 0
8:35 am 08:35 Sunny 47 8.5 45 7.2 92 92 S 10 17 29.95 1014 10 16.0934 0 0
8:55 am 08:55 Sunny 48 9.1 46 7.7 91 91 S 13 20 29.94 1014 10 16.0934 0 0
9:15 am 09:15 Sunny 50 10.2 46 8 86 86 S 14 22 29.92 1013 10 16.0934 0 0
9:35 am 09:35 Sunny 53 11.5 47 8.5 82 82 S 14 22 29.91 1013 10 16.0934 0 0
9:55 am 09:55 Sunny 54 12.2 48 8.7 79 79 SSW 12 19 29.9 1013 10 16.0934 0 0
10:15 am 10:15 Sunny 56 13.1 48 9 76 76 SSW 12 19 29.9 1012 10 16.0934 0 0
10:35 am 10:35 Sunny 56 13.5 48 8.9 74 74 SSW 8 13 29.89 1012 10 16.0934 0 0
10:55 am 10:55 Sunny 58 14.2 49 9.2 72 72 SW 9 15 29.89 1012 10 16.0934 0 0
11:15 am 11:15 Sunny 59 14.8 49 9.3 70 70 SW 9 15 29.89 1012 10 16.0934 0 0
11:35 am 11:35 Sunny 60 15.7 49 9.6 67 67 SW 7 11 29.88 1012 10 16.0934 0 0
11:55 am 11:55 Sunny 61 15.9 49 9.6 66 66 W 8 13 29.89 1012 10 16.0934 0 0
12:15 pm 12:15 Sunny 62 16.7 50 9.8 64 64 W 7 11 29.87 1012 10 16.0934 0 0
12:35 pm 12:35 Sunny 64 17.5 50 10.1 62 62 WSW 5 7 29.87 1011 10 16.0934 0 0
12:55 pm 12:55 Sunny 64 17.9 50 10.2 61 61 Calm 29.85 1011 10 16.0934 0 0
1:15 pm 13:15 Sunny 67 19.2 50 9.9 55 55 Calm 29.83 1010 10 16.0934 0 0
1:35 pm 13:35 Sunny 68 19.8 50 9.9 53 53 NNW 5 7 29.83 1010 10 16.0934 0 0
1:55 pm 13:55 Sunny 69 20.7 49 9.6 49 49 WNW 6 9 29.82 1010 10 16.0934 0 0
2:15 pm 14:15 Sunny 70 21 49 9.4 48 48 Calm 29.81 1009 10 16.0934 0 0
2:35 pm 14:35 Sunny 71 21.4 47 8.5 44 44 N 3 6 29.8 1009 10 16.0934 0 0
2:55 pm 14:55 Sunny 71 21.4 48 8.7 44 44 NNW 6 9 29.81 1009 10 16.0934 0 0
3:15 pm 15:15 Sunny 72 22 47 8.1 41 41 NNW 3 6 29.8 1009 10 16.0934 0 0
3:35 pm 15:35 Sunny 71 21.6 46 7.5 40 40 NNW 5 7 29.79 1009 10 16.0934 0 0
3:55 pm 15:55 Sunny 72 22.4 45 7.2 38 38 WNW 5 7 29.79 1009 10 16.0934 0 0
4:15 pm 16:15 Sunny 73 22.6 45 7.2 37 37 WNW 6 9 29.79 1009 10 16.0934 0 0
4:35 pm 16:35 Sunny 73 22.9 45 7.4 37 37 W 7 11 29.78 1009 10 16.0934 0 0
4:55 pm 16:55 Sunny 73 22.6 44 6.6 36 36 NNW 6 9 29.79 1009 10 16.0934 0 0
5:15 pm 17:15 Sunny 73 23 42 5.8 33 33 NW 6 9 29.78 1009 10 16.0934 0 0
5:35 pm 17:35 Sunny 73 22.5 42 5.4 33 33 NW 5 7 29.79 1009 10 16.0934 0 0
5:55 pm 17:55 Sunny 73 23 41 5 31 31 WNW 6 9 29.78 1009 10 16.0934 0 0
6:15 pm 18:15 Sunny 72 22 40 4.5 32 32 NW 5 7 29.79 1009 10 16.0934 0 0
6:35 pm 18:35 Sunny 73 22.5 40 4.3 31 31 W 3 6 29.8 1009 10 16.0934 0 0
6:55 pm 18:55 Sunny 73 22.5 39 4 30 30 Calm 29.8 1009 10 16.0934 0 0
7:15 pm 19:15 Sunny 69 20.6 40 4.5 35 35 Calm 29.82 1010 10 16.0934 0 0
7:35 pm 19:35 Sunny 68 20 39 4 35 35 Calm 29.83 1010 10 16.0934 0 0
7:55 pm 19:55 Sunny 63 17.1 40 4.5 43 43 Calm 29.86 1011 10 16.0934 0 0
8:15 pm 20:15 Clear 58 14.7 42 5.4 54 54 Calm 29.88 1012 10 16.0934 0 0
8:35 pm 20:35 Clear 58 14.3 43 6 58 58 Calm 29.89 1012 10 16.0934 0 0
8:55 pm 20:55 Clear 57 13.7 41 5 56 56 N 3 6 29.9 1013 10 16.0934 0 0
9:15 pm 21:15 Clear 55 13 39 3.8 54 54 Calm 29.92 1013 10 16.0934 0 0
9:35 pm 21:35 Clear 52 10.9 41 4.9 67 67 ENE 6 9 29.94 1014 10 16.0934 0 0
9:55 pm 21:55 Clear 52 11.3 41 4.9 65 65 ENE 6 9 29.95 1014 10 16.0934 0 0
10:15 pm 22:15 Clear 51 10.8 40 4.7 66 66 Calm 29.97 1015 10 16.0934 0 0
10:35 pm 22:35 Clear 51 10.7 41 5 68 68 NNE 12 19 29.97 1015 10 16.0934 0 0
10:55 pm 22:55 Clear 50 10 41 5.1 72 72 NE 10 17 29.98 1015 10 16.0934 0 0
11:15 pm 23:15 Clear 51 10.5 41 5 69 69 NNE 10 17 29.98 1015 10 16.0934 0 0
11:35 pm 23:35 Clear 51 10.5 43 6 74 74 NNE 10 17 29.98 1015 10 16.0934 0 0
11:55 pm 23:55 Clear with Drizzle 50 9.8 44 6.5 80 80 NNE 10 17 29.98 1015 10 16.0934 0 0

Powered by AerisWeather